Willimantic, CT

5:54 AM EDT on March 30, 2017 (GMT -0400)
Windham

Weather History for KIJD - May, 2014

Change the Weather History Date:

Friday, May 2, 2014

  Actual Average Record
Temperature  
Mean Temperature 57 °F -  
Max Temperature 66 °F 68 °F 93 °F (2001)
Min Temperature 48 °F 42 °F 26 °F (1964)
Degree Days  
Heating Degree Days 8    
Growing Degree Days 7 (Base 50)    
Moisture  
Dew Point 39 °F    
Average Humidity 50    
Maximum Humidity 80    
Minimum Humidity 29    
Precipitation  
Precipitation 0.01 in - - ()
Sea Level Pressure  
Sea Level Pressure 29.74 in    
Wind  
Wind Speed 5 mph (WNW)    
Max Wind Speed 13 mph    
Max Gust Speed 25 mph    
Visibility 10 miles    
Events Rain    
Averages and records for this station are not official NWS values.
T = Trace of Precipitation, MM = Missing Value Source: NWS Daily Summary

Daily Weather History Graph

Daily Weather History Graph

Search for Another Location

Airport or City:

Trip Planner

Search our weather history database for the weather conditions in past years. The results will help you decide how hot, cold, wet, or windy it might be!

Date:

Astronomy

May. 02, 2014 Rise Set
Actual Time 5:43 AM EDT 7:48 PM EDT
Civil Twilight 5:13 AM EDT 8:18 PM EDT
Nautical Twilight 4:36 AM EDT 8:55 PM EDT
Astronomical Twilight 3:55 AM EDT 9:36 PM EDT
Moon 8:17 AM EDT (5/2) 11:08 PM EDT (5/2)
Length of Visible Light 15h 04m
Length of Day
14h 04m
Waxing Crescent, 12% of the Moon is Illuminated
May 2
Waxing Crescent
May 6
First Quarter
May 14
Full
May 21
Last Quarter
May 28
New

Hourly Weather History & Observations

Time (EDT) Temp. Dew Point Humidity Pressure Visibility Wind Dir Wind Speed Gust Speed Precip Events Conditions
12:52 AM 60.1 °F 51.1 °F 72% 29.71 in 10.0 mi Variable 4.6 mph - 0.00 in   Overcast
1:52 AM 57.9 °F 51.1 °F 78% 29.71 in 10.0 mi North 8.1 mph - 0.01 in Rain Light Rain
2:52 AM 55.9 °F 39.0 °F 53% 29.73 in 10.0 mi NNW 8.1 mph 21.9 mph 0.00 in   Mostly Cloudy
3:52 AM 53.1 °F 39.0 °F 59% 29.70 in 10.0 mi NNE 5.8 mph - N/A   Scattered Clouds
4:52 AM 51.1 °F 41.0 °F 68% 29.73 in 10.0 mi WNW 3.5 mph - N/A   Overcast
5:52 AM 48.9 °F 43.0 °F 80% 29.71 in 10.0 mi North 3.5 mph - 0.00 in   Mostly Cloudy
6:52 AM 50.0 °F 43.0 °F 77% 29.74 in 10.0 mi Calm Calm - N/A   Overcast
7:52 AM 53.1 °F 42.1 °F 66% 29.74 in 10.0 mi Calm Calm - N/A   Mostly Cloudy
8:52 AM 55.9 °F 39.0 °F 53% 29.74 in 10.0 mi Calm Calm - N/A   Overcast
9:52 AM 59.0 °F 37.9 °F 46% 29.74 in 10.0 mi Calm Calm - N/A   Scattered Clouds
10:52 AM 62.1 °F 36.0 °F 38% 29.74 in 10.0 mi NNW 6.9 mph 16.1 mph N/A   Partly Cloudy
11:52 AM 64.0 °F 36.0 °F 35% 29.73 in 10.0 mi WNW 11.5 mph 17.3 mph N/A   Scattered Clouds
12:52 PM 63.0 °F 35.1 °F 35% 29.71 in 10.0 mi WSW 9.2 mph 25.3 mph N/A   Overcast
2:52 PM 66.0 °F 37.9 °F 36% 29.70 in 10.0 mi SW 11.5 mph 17.3 mph N/A   Clear
3:52 PM 66.0 °F 37.9 °F 36% 29.69 in 10.0 mi SSW 9.2 mph 18.4 mph N/A   Mostly Cloudy
4:52 PM 64.0 °F 39.0 °F 40% 29.69 in 10.0 mi SSW 12.7 mph 20.7 mph N/A   Mostly Cloudy
5:52 PM 66.0 °F 37.9 °F 36% 29.71 in 10.0 mi Variable 6.9 mph - N/A   Mostly Cloudy
6:52 PM 64.9 °F 32.0 °F 29% 29.73 in 10.0 mi WSW 6.9 mph 17.3 mph N/A   Overcast
7:52 PM 64.0 °F 33.1 °F 31% 29.75 in 10.0 mi West 6.9 mph - N/A   Overcast
8:52 PM 62.1 °F 34.0 °F 35% 29.78 in 10.0 mi SW 4.6 mph - N/A   Overcast
9:52 PM 60.1 °F 35.1 °F 39% 29.80 in 10.0 mi Calm Calm - N/A   Partly Cloudy
10:52 PM 57.0 °F 37.9 °F 49% 29.81 in 10.0 mi NNW 4.6 mph - N/A   Clear
11:52 PM 51.1 °F 39.0 °F 63% 29.83 in 10.0 mi Calm Calm - N/A   Clear